Simultaneous Nadir Overpasses (SNOs) Predictions

Prediction of SNOs between NOAA-19 and TERRA Satellite Orbit:

Table of predicted SNOs for the next 14.0 days since TLE Epoch: 12/18/2021
Index Date (NOAA-19) Time (NOAA-19) Lat,Lon (NOAA-19) SZA (NOAA-19 ) Date (TERRA) Time (TERRA) Lat,Lon (TERRA) SZA (TERRA ) Distance(km) Time Diff (sec)
1 12/18/2021 22:02:08 -80.56, 64.84 74.36 12/18/2021 22:02:10 -80.58, 64.75 74.36 2.38 2
2 12/21/2021 03:35:08 80.57, 161.38 105.64 12/21/2021 03:35:51 80.57, 161.26 105.64 2.29 43
3 12/21/2021 04:26:12 -80.56, -31.14 74.36 12/21/2021 04:25:18 -80.57, -31.15 74.37 0.51 54
4 12/23/2021 09:08:22 -80.65,-103.83 74.51 12/23/2021 09:09:35 -80.49,-102.99 74.54 23.31 73
5 12/23/2021 09:59:12 80.57, 65.46 105.61 12/23/2021 09:58:59 80.56, 65.31 105.58 3.35 13
6 12/25/2021 15:32:21 -80.59, 161.89 74.49 12/25/2021 15:32:40 -80.57, 162.01 74.48 3.03 19
7 12/25/2021 16:23:16 80.57, -30.47 105.54 12/25/2021 16:22:06 80.57, -30.35 105.52 2.25 70
8 12/27/2021 21:05:21 80.59,-101.33 105.41 12/27/2021 21:06:20 80.58,-101.31 105.43 1.18 59
9 12/27/2021 21:56:22 -80.57, 66.50 74.56 12/27/2021 21:55:46 -80.58, 66.34 74.58 3.41 36



Historial Predications of SNOs between NOAA-19 and TERRA
